{"data":{"norad_id":68574,"epoch":"2026-09-19T06:10:32.405664Z","epoch_age_seconds":173767,"freshness":"STALE","line1":"1 68574U 26072B   26262.25731951  .00001530  00000+0  22974-3 0  9993","line2":"2 68574  51.9002 142.1499 0000713 118.7571 241.3463 14.79925053 25016","mean_motion":14.79925053,"eccentricity":7.13e-5,"inclination_deg":51.9002,"raan_deg":142.1499,"arg_perigee_deg":118.7571,"mean_anomaly_deg":241.3463,"bstar":0.00022974,"rev_number":2501,"period_min":97.302224668806,"perigee_km":629.06106714983,"apogee_km":630.06036484413,"semimajor_km":7007.697715997,"source":"CELESTRAK","updated_at":"2026-09-20T09:00:24.318370Z"}}